"Datum/tijd (MEZT)";"Astronomisch 1minuut standen";"meting 1minuut standen";"2-uur lopend gemiddelde opzet";"seiche"
2024-04-08 16:00;135;169;44.133333333333;-10.133333333333
2024-04-08 16:01;134;169;44.295081967213;-9.2950819672131
2024-04-08 16:02;133;168;44.451612903226;-9.4516129032258
2024-04-08 16:03;133;168;44.619047619048;-9.6190476190476
2024-04-08 16:04;132;167;44.796875;-9.796875
2024-04-08 16:05;131;166;44.923076923077;-9.9230769230769
2024-04-08 16:06;130;166;45.045454545455;-9.0454545454545
2024-04-08 16:07;129;166;45.149253731343;-8.1492537313433
2024-04-08 16:08;128;165;45.25;-8.25
2024-04-08 16:09;127;164;45.333333333333;-8.3333333333333
2024-04-08 16:10;127;164;45.4;-8.4
2024-04-08 16:11;126;163;45.450704225352;-8.4507042253521
2024-04-08 16:12;125;163;45.472222222222;-7.4722222222222
2024-04-08 16:13;124;161;45.493150684932;-8.4931506849315
2024-04-08 16:14;123;161;45.513513513514;-7.5135135135135
2024-04-08 16:15;123;161;45.533333333333;-7.5333333333333
2024-04-08 16:16;122;158;45.552631578947;-9.5526315789474
2024-04-08 16:17;121;159;45.571428571429;-7.5714285714286
2024-04-08 16:18;121;158;45.589743589744;-8.5897435897436
2024-04-08 16:19;120;157;45.607594936709;-8.6075949367089
2024-04-08 16:20;119;157;45.625;-7.625
2024-04-08 16:21;119;157;45.641975308642;-7.641975308642
2024-04-08 16:22;118;157;45.658536585366;-6.6585365853659
2024-04-08 16:23;117;157;45.66265060241;-5.6626506024096
2024-04-08 16:24;117;157;45.678571428571;-5.6785714285714
2024-04-08 16:25;116;157;45.682352941176;-4.6823529411765
2024-04-08 16:26;116;158;45.686046511628;-3.6860465116279
2024-04-08 16:27;115;158;45.689655172414;-2.6896551724138
2024-04-08 16:28;115;158;45.681818181818;-2.6818181818182
2024-04-08 16:29;114;159;45.674157303371;-0.67415730337078
2024-04-08 16:30;114;158;45.655555555556;-1.6555555555556
2024-04-08 16:31;114;158;45.637362637363;-1.6373626373626
2024-04-08 16:32;113;159;45.608695652174;0.39130434782609
2024-04-08 16:33;113;159;45.58064516129;0.41935483870968
2024-04-08 16:34;112;159;45.521276595745;1.4787234042553
2024-04-08 16:35;112;158;45.463157894737;0.53684210526315
2024-04-08 16:36;112;158;45.385416666667;0.61458333333334
2024-04-08 16:37;111;159;45.309278350515;2.6907216494845
2024-04-08 16:38;111;160;45.214285714286;3.7857142857143
2024-04-08 16:39;111;159;45.131313131313;2.8686868686869
2024-04-08 16:40;110;159;45.05;3.95
2024-04-08 16:41;110;159;44.960396039604;4.039603960396
2024-04-08 16:42;110;160;44.882352941176;5.1176470588235
2024-04-08 16:43;110;160;44.815533980583;5.1844660194175
2024-04-08 16:44;109;160;44.740384615385;6.2596153846154
2024-04-08 16:45;109;161;44.666666666667;7.3333333333333
2024-04-08 16:46;109;161;44.603773584906;7.3962264150943
2024-04-08 16:47;109;161;44.542056074766;7.4579439252336
2024-04-08 16:48;109;161;44.481481481481;7.5185185185185
2024-04-08 16:49;108;161;44.422018348624;8.5779816513761
2024-04-08 16:50;108;161;44.345454545455;8.6545454545455
2024-04-08 16:51;108;161;44.279279279279;8.7207207207207
2024-04-08 16:52;108;162;44.214285714286;9.7857142857143
2024-04-08 16:53;108;161;44.150442477876;8.8495575221239
2024-04-08 16:54;108;162;44.078947368421;9.9210526315789
2024-04-08 16:55;107;161;44;10
2024-04-08 16:56;107;160;43.913793103448;9.0862068965517
2024-04-08 16:57;107;161;43.82905982906;10.17094017094
2024-04-08 16:58;107;161;43.745762711864;10.254237288136
2024-04-08 16:59;107;161;43.663865546218;10.336134453782
2024-04-08 17:00;107;161;43.583333333333;10.416666666667
2024-04-08 17:01;106;160;43.575;10.425
2024-04-08 17:02;106;161;43.558333333333;11.441666666667
2024-04-08 17:03;106;162;43.541666666667;12.458333333333
2024-04-08 17:04;106;159;43.541666666667;9.4583333333333
2024-04-08 17:05;106;159;43.55;9.45
2024-04-08 17:06;106;158;43.55;8.45
2024-04-08 17:07;105;157;43.558333333333;8.4416666666667
2024-04-08 17:08;105;156;43.566666666667;7.4333333333333
2024-04-08 17:09;105;155;43.591666666667;6.4083333333333
2024-04-08 17:10;105;154;43.616666666667;5.3833333333333
2024-04-08 17:11;105;152;43.633333333333;3.3666666666667
2024-04-08 17:12;104;151;43.658333333333;3.3416666666667
2024-04-08 17:13;104;151;43.675;3.325
2024-04-08 17:14;104;151;43.691666666667;3.3083333333333
2024-04-08 17:15;104;151;43.708333333333;3.2916666666667
2024-04-08 17:16;103;150;43.716666666667;3.2833333333333
2024-04-08 17:17;103;150;43.741666666667;3.2583333333333
2024-04-08 17:18;103;150;43.75;3.25
2024-04-08 17:19;103;150;43.766666666667;3.2333333333333
2024-04-08 17:20;102;149;43.791666666667;3.2083333333333
2024-04-08 17:21;102;149;43.8;3.2
2024-04-08 17:22;102;148;43.808333333333;2.1916666666667
2024-04-08 17:23;101;148;43.808333333333;3.1916666666667
2024-04-08 17:24;101;147;43.808333333333;2.1916666666667
2024-04-08 17:25;100;146;43.808333333333;2.1916666666667
2024-04-08 17:26;100;146;43.791666666667;2.2083333333333
2024-04-08 17:27;100;145;43.766666666667;1.2333333333333
2024-04-08 17:28;99;144;43.741666666667;1.2583333333333
2024-04-08 17:29;99;143;43.708333333333;0.29166666666666
2024-04-08 17:30;98;142;43.658333333333;0.34166666666667
2024-04-08 17:31;98;141;43.625;-0.625
2024-04-08 17:32;97;140;43.583333333333;-0.58333333333334
2024-04-08 17:33;97;137;43.508333333333;-3.5083333333333
2024-04-08 17:34;96;136;43.458333333333;-3.4583333333333
2024-04-08 17:35;96;134;43.416666666667;-5.4166666666667
2024-04-08 17:36;95;133;43.341666666667;-5.3416666666667
2024-04-08 17:37;95;131;43.275;-7.275
2024-04-08 17:38;94;131;43.191666666667;-6.1916666666667
2024-04-08 17:39;93;130;43.091666666667;-6.0916666666667
2024-04-08 17:40;93;129;43.008333333333;-7.0083333333333
2024-04-08 17:41;92;129;42.916666666667;-5.9166666666667
2024-04-08 17:42;91;129;42.825;-4.825
2024-04-08 17:43;91;128;42.708333333333;-5.7083333333333
2024-04-08 17:44;90;127;42.6;-5.6
2024-04-08 17:45;89;127;42.491666666667;-4.4916666666667
2024-04-08 17:46;89;127;42.375;-4.375
2024-04-08 17:47;88;126;42.258333333333;-4.2583333333333
2024-04-08 17:48;87;125;42.141666666667;-4.1416666666667
2024-04-08 17:49;87;123;42.025;-6.025
2024-04-08 17:50;86;123;41.9;-4.9
2024-04-08 17:51;85;122;41.791666666667;-4.7916666666667
2024-04-08 17:52;84;121;41.683333333333;-4.6833333333333
2024-04-08 17:53;83;119;41.566666666667;-5.5666666666667
2024-04-08 17:54;83;118;41.45;-6.45
2024-04-08 17:55;82;116;41.325;-7.325
2024-04-08 17:56;81;115;41.2;-7.2
2024-04-08 17:57;80;114;41.083333333333;-7.0833333333333
2024-04-08 17:58;79;113;40.958333333333;-6.9583333333333
2024-04-08 17:59;78;112;40.825;-6.825
2024-04-08 18:00;78;111;40.683333333333;-7.6833333333333
2024-04-08 18:01;77;110;40.541666666667;-7.5416666666667
2024-04-08 18:02;76;109;40.4;-7.4
2024-04-08 18:03;75;110;40.25;-5.25
2024-04-08 18:04;74;110;40.075;-4.075
2024-04-08 18:05;73;108;39.925;-4.925
2024-04-08 18:06;72;109;39.783333333333;-2.7833333333333
2024-04-08 18:07;71;109;39.65;-1.65
2024-04-08 18:08;70;110;39.508333333333;0.49166666666667
2024-04-08 18:09;69;109;39.383333333333;0.61666666666667
2024-04-08 18:10;68;107;39.275;-0.275
2024-04-08 18:11;68;108;39.175;0.825
2024-04-08 18:12;67;107;39.091666666667;0.90833333333333
2024-04-08 18:13;66;105;39.016666666667;-0.016666666666666
2024-04-08 18:14;65;105;38.941666666667;1.0583333333333
2024-04-08 18:15;64;103;38.85;0.15
2024-04-08 18:16;63;102;38.766666666667;0.23333333333333
2024-04-08 18:17;62;101;38.7;0.3
2024-04-08 18:18;61;100;38.625;0.375
2024-04-08 18:19;60;100;38.541666666667;1.4583333333333
2024-04-08 18:20;59;98;38.45;0.55
2024-04-08 18:21;58;97;38.375;0.625
2024-04-08 18:22;57;96;38.266666666667;0.73333333333333
2024-04-08 18:23;56;96;38.2;1.8
2024-04-08 18:24;55;95;38.133333333333;1.8666666666667
2024-04-08 18:25;54;93;38.058333333333;0.94166666666667
2024-04-08 18:26;53;92;37.975;1.025
2024-04-08 18:27;52;92;37.9;2.1
2024-04-08 18:28;51;90;37.841666666667;1.1583333333333
2024-04-08 18:29;50;89;37.783333333333;1.2166666666667
2024-04-08 18:30;49;89;37.725;2.275
2024-04-08 18:31;48;87;37.683333333333;1.3166666666667
2024-04-08 18:32;47;84;37.65;-0.65
2024-04-08 18:33;45;85;37.616666666667;2.3833333333333
2024-04-08 18:34;44;86;37.608333333333;4.3916666666667
2024-04-08 18:35;43;80;37.616666666667;-0.61666666666667
2024-04-08 18:36;42;80;37.658333333333;0.34166666666667
2024-04-08 18:37;41;79;37.683333333333;0.31666666666667
2024-04-08 18:38;40;77;37.741666666667;-0.74166666666667
2024-04-08 18:39;39;77;37.8;0.2
2024-04-08 18:40;38;76;37.858333333333;0.14166666666667
2024-04-08 18:41;37;75;37.916666666667;0.083333333333336
2024-04-08 18:42;36;72;37.983333333333;-1.9833333333333
2024-04-08 18:43;35;72;38.033333333333;-1.0333333333333
2024-04-08 18:44;34;72;38.091666666667;-0.091666666666669
2024-04-08 18:45;33;71;38.158333333333;-0.15833333333333
2024-04-08 18:46;32;70;38.216666666667;-0.21666666666667
2024-04-08 18:47;31;69;38.275;-0.275
2024-04-08 18:48;30;68;38.333333333333;-0.33333333333334
2024-04-08 18:49;29;67;38.408333333333;-0.40833333333333
2024-04-08 18:50;27;67;38.5;1.5
2024-04-08 18:51;26;66;38.575;1.425
2024-04-08 18:52;25;65;38.658333333333;1.3416666666667
2024-04-08 18:53;24;63;38.741666666667;0.25833333333333
2024-04-08 18:54;23;62;38.833333333333;0.16666666666666
2024-04-08 18:55;22;61;38.941666666667;0.05833333333333
2024-04-08 18:56;21;60;39.058333333333;-0.05833333333333
2024-04-08 18:57;20;59;39.183333333333;-0.18333333333333
2024-04-08 18:58;19;57;39.3;-1.3
2024-04-08 18:59;18;55;39.408333333333;-2.4083333333333
2024-04-08 19:00;16;53;39.525;-2.525
2024-04-08 19:01;15;52;39.65;-2.65
2024-04-08 19:02;14;51;39.775;-2.775
2024-04-08 19:03;13;48;39.891666666667;-4.8916666666667
2024-04-08 19:04;12;47;40;-5
2024-04-08 19:05;11;47;40.091666666667;-4.0916666666667
2024-04-08 19:06;10;46;40.191666666667;-4.1916666666667
2024-04-08 19:07;9;44;40.283333333333;-5.2833333333333
2024-04-08 19:08;7;43;40.358333333333;-4.3583333333333
2024-04-08 19:09;6;43;40.416666666667;-3.4166666666667
2024-04-08 19:10;5;42;40.483333333333;-3.4833333333333
2024-04-08 19:11;4;41;40.558333333333;-3.5583333333333
2024-04-08 19:12;3;41;40.616666666667;-2.6166666666667
2024-04-08 19:13;2;40;40.683333333333;-2.6833333333333
2024-04-08 19:14;1;37;40.758333333333;-4.7583333333333
2024-04-08 19:15;0;37;40.825;-3.825
2024-04-08 19:16;-2;37;40.9;-1.9
2024-04-08 19:17;-3;35;40.975;-2.975
2024-04-08 19:18;-4;33;41.058333333333;-4.0583333333333
2024-04-08 19:19;-5;31;41.141666666667;-5.1416666666667
2024-04-08 19:20;-6;32;41.208333333333;-3.2083333333333
2024-04-08 19:21;-7;27;41.3;-7.3
2024-04-08 19:22;-8;30;41.4;-3.4
2024-04-08 19:23;-10;29;41.483333333333;-2.4833333333333
2024-04-08 19:24;-11;26;41.558333333333;-4.5583333333333
2024-04-08 19:25;-12;24;41.641666666667;-5.6416666666667
2024-04-08 19:26;-13;24;41.733333333333;-4.7333333333333
2024-04-08 19:27;-14;24;41.833333333333;-3.8333333333333
2024-04-08 19:28;-15;23;41.925;-3.925
2024-04-08 19:29;-16;21;42.041666666667;-5.0416666666667
2024-04-08 19:30;-17;22;42.141666666667;-3.1416666666667
2024-04-08 19:31;-18;21;42.216666666667;-3.2166666666667
2024-04-08 19:32;-19;20;42.316666666667;-3.3166666666667
2024-04-08 19:33;-20;19;42.45;-3.45
2024-04-08 19:34;-21;20;42.55;-1.55
2024-04-08 19:35;-23;20;42.625;0.375
2024-04-08 19:36;-24;17;42.725;-1.725
2024-04-08 19:37;-25;18;42.816666666667;0.18333333333333
2024-04-08 19:38;-26;18;42.908333333333;1.0916666666667
2024-04-08 19:39;-27;17;43.016666666667;0.98333333333333
2024-04-08 19:40;-28;15;43.116666666667;-0.11666666666667
2024-04-08 19:41;-29;16;43.191666666667;1.8083333333333
2024-04-08 19:42;-29;15;43.266666666667;0.73333333333333
2024-04-08 19:43;-30;14;43.366666666667;0.63333333333333
2024-04-08 19:44;-31;14;43.458333333333;1.5416666666667
2024-04-08 19:45;-32;13;43.541666666667;1.4583333333333
2024-04-08 19:46;-33;12;43.616666666667;1.3833333333333
2024-04-08 19:47;-34;11;43.691666666667;1.3083333333333
2024-04-08 19:48;-35;12;43.758333333333;3.2416666666667
2024-04-08 19:49;-36;11;43.825;3.175
2024-04-08 19:50;-36;10;43.9;2.1
2024-04-08 19:51;-37;10;43.958333333333;3.0416666666667
2024-04-08 19:52;-38;9;44.016666666667;2.9833333333333
2024-04-08 19:53;-39;8;44.008333333333;2.9916666666667
2024-04-08 19:54;-40;8;44.108333333333;3.8916666666667
2024-04-08 19:55;-40;8;44.2;3.8
2024-04-08 19:56;-41;8;44.241666666667;4.7583333333333
2024-04-08 19:57;-42;6;44.258333333333;3.7416666666667
2024-04-08 19:58;-42;5;44.316666666667;2.6833333333333
2024-04-08 19:59;-43;5;44.35;3.65
2024-04-08 20:00;-43;5;44.4;3.6
2024-04-08 20:01;-44;4;44.441666666667;3.5583333333333
2024-04-08 20:02;-45;2;44.483333333333;2.5166666666667
2024-04-08 20:03;-45;3;44.516666666667;3.4833333333333
2024-04-08 20:04;-46;1;44.575;2.425
2024-04-08 20:05;-46;1;44.625;2.375
2024-04-08 20:06;-47;1;44.691666666667;3.3083333333333
2024-04-08 20:07;-47;0;44.741666666667;2.2583333333333
2024-04-08 20:08;-47;0;44.808333333333;2.1916666666667
2024-04-08 20:09;-48;0;44.866666666667;3.1333333333333
2024-04-08 20:10;-48;0;44.933333333333;3.0666666666667
2024-04-08 20:11;-48;-1;45.016666666667;1.9833333333333
2024-04-08 20:12;-49;-1;45.091666666667;2.9083333333333
2024-04-08 20:13;-49;-1;45.158333333333;2.8416666666667
2024-04-08 20:14;-49;-1;45.208333333333;2.7916666666667
2024-04-08 20:15;-49;-1;45.3;2.7
2024-04-08 20:16;-49;-1;45.4;2.6
2024-04-08 20:17;-50;-1;45.475;3.525
2024-04-08 20:18;-50;-1;45.541666666667;3.4583333333333
2024-04-08 20:19;-50;-2;45.616666666667;2.3833333333333
2024-04-08 20:20;-50;0;45.708333333333;4.2916666666667
2024-04-08 20:21;-50;1;45.8;5.2
2024-04-08 20:22;-50;-1;45.925;3.075
2024-04-08 20:23;-50;-1;45.991666666667;3.0083333333333
2024-04-08 20:24;-50;0;46.05;3.95
2024-04-08 20:25;-50;0;46.125;3.875
2024-04-08 20:26;-50;1;46.225;4.775
2024-04-08 20:27;-50;1;46.325;4.675
2024-04-08 20:28;-50;3;46.425;6.575
2024-04-08 20:29;-49;2;46.508333333333;4.4916666666667
2024-04-08 20:30;-49;0;46.591666666667;2.4083333333333
2024-04-08 20:31;-49;2;46.683333333333;4.3166666666667
2024-04-08 20:32;-49;4;46.8;6.2
2024-04-08 20:33;-49;3;46.925;5.075
2024-04-08 20:34;-48;3;47.008333333333;3.9916666666667
2024-04-08 20:35;-48;1;47.116666666667;1.8833333333333
2024-04-08 20:36;-48;1;47.183333333333;1.8166666666667
2024-04-08 20:37;-47;2;47.275;1.725
2024-04-08 20:38;-47;3;47.358333333333;2.6416666666667
2024-04-08 20:39;-47;3;47.433333333333;2.5666666666667
2024-04-08 20:40;-46;1;47.483333333333;-0.48333333333333
2024-04-08 20:41;-46;1;47.55;-0.55
2024-04-08 20:42;-46;2;47.608333333333;0.39166666666667
2024-04-08 20:43;-45;3;47.683333333333;0.31666666666667
2024-04-08 20:44;-45;3;47.741666666667;0.25833333333333
2024-04-08 20:45;-44;3;47.783333333333;-0.78333333333333
2024-04-08 20:46;-44;3;47.825;-0.825
2024-04-08 20:47;-44;2;47.858333333333;-1.8583333333333
2024-04-08 20:48;-43;3;47.891666666667;-1.8916666666667
2024-04-08 20:49;-43;4;47.916666666667;-0.91666666666666
2024-04-08 20:50;-42;5;47.933333333333;-0.93333333333333
2024-04-08 20:51;-42;5;47.941666666667;-0.94166666666667
2024-04-08 20:52;-41;-2;47.941666666667;-8.9416666666667
2024-04-08 20:53;-41;10;47.966666666667;3.0333333333333
2024-04-08 20:54;-40;10;47.991666666667;2.0083333333333
2024-04-08 20:55;-40;4;47.991666666667;-3.9916666666667
2024-04-08 20:56;-39;2;47.983333333333;-6.9833333333333
2024-04-08 20:57;-39;7;47.983333333333;-1.9833333333333
2024-04-08 20:58;-38;4;48;-6
2024-04-08 20:59;-38;5;48.025;-5.025
2024-04-08 21:00;-37;5;48.041666666667;-6.0416666666667
2024-04-08 21:01;-37;5;48.05;-6.05
2024-04-08 21:02;-36;5;48.05;-7.05
2024-04-08 21:03;-36;6;48.066666666667;-6.0666666666667
2024-04-08 21:04;-35;6;48.083333333333;-7.0833333333333
2024-04-08 21:05;-35;9;48.108333333333;-4.1083333333333
2024-04-08 21:06;-34;8;48.125;-6.125
2024-04-08 21:07;-34;9;48.1;-5.1
2024-04-08 21:08;-33;10;48.108333333333;-5.1083333333333
2024-04-08 21:09;-33;12;48.108333333333;-3.1083333333333
2024-04-08 21:10;-33;14;48.125;-1.125
2024-04-08 21:11;-32;14;48.15;-2.15
2024-04-08 21:12;-32;14;48.15;-2.15
2024-04-08 21:13;-31;13;48.133333333333;-4.1333333333333
2024-04-08 21:14;-31;16;48.133333333333;-1.1333333333333
2024-04-08 21:15;-31;18;48.133333333333;0.86666666666667
2024-04-08 21:16;-30;18;48.133333333333;-0.13333333333333
2024-04-08 21:17;-30;16;48.125;-2.125
2024-04-08 21:18;-30;16;48.108333333333;-2.1083333333333
2024-04-08 21:19;-29;18;48.091666666667;-1.0916666666667
2024-04-08 21:20;-29;20;48.091666666667;0.90833333333333
2024-04-08 21:21;-29;20;48.083333333333;0.91666666666666
2024-04-08 21:22;-28;18;48.058333333333;-2.0583333333333
2024-04-08 21:23;-28;18;48.05;-2.05
2024-04-08 21:24;-28;18;48.041666666667;-2.0416666666667
2024-04-08 21:25;-28;20;48.05;-0.049999999999997
2024-04-08 21:26;-27;22;48.058333333333;0.94166666666667
2024-04-08 21:27;-27;23;48.058333333333;1.9416666666667
2024-04-08 21:28;-27;21;48.05;-0.049999999999997
2024-04-08 21:29;-27;20;48.016666666667;-1.0166666666667
2024-04-08 21:30;-27;23;48.016666666667;1.9833333333333
2024-04-08 21:31;-27;26;48.033333333333;4.9666666666667
2024-04-08 21:32;-27;27;48.05;5.95
2024-04-08 21:33;-27;22;48.033333333333;0.96666666666667
2024-04-08 21:34;-27;27;48.008333333333;5.9916666666667
2024-04-08 21:35;-26;25;48.008333333333;2.9916666666667
2024-04-08 21:36;-26;26;48.033333333333;3.9666666666667
2024-04-08 21:37;-26;27;48.058333333333;4.9416666666667
2024-04-08 21:38;-26;27;48.083333333333;4.9166666666667
2024-04-08 21:39;-27;23;48.091666666667;1.9083333333333
2024-04-08 21:40;-27;24;48.108333333333;2.8916666666667
2024-04-08 21:41;-27;25;48.15;3.85
2024-04-08 21:42;-27;26;48.191666666667;4.8083333333333
2024-04-08 21:43;-27;24;48.233333333333;2.7666666666667
2024-04-08 21:44;-27;23;48.266666666667;1.7333333333333
2024-04-08 21:45;-27;23;48.291666666667;1.7083333333333
2024-04-08 21:46;-27;22;48.333333333333;0.66666666666666
2024-04-08 21:47;-27;22;48.391666666667;0.60833333333333
2024-04-08 21:48;-28;22;48.458333333333;1.5416666666667
2024-04-08 21:49;-28;21;48.516666666667;0.48333333333333
2024-04-08 21:50;-28;19;48.566666666667;-1.5666666666667
2024-04-08 21:51;-28;19;48.625;-1.625
2024-04-08 21:52;-29;21;48.7;1.3
2024-04-08 21:53;-29;21;48.85;1.15
2024-04-08 21:54;-29;19;48.9;-0.9
2024-04-08 21:55;-29;18;48.958333333333;-1.9583333333333
2024-04-08 21:56;-30;19;49.066666666667;-0.06666666666667
2024-04-08 21:57;-30;20;49.208333333333;0.79166666666666
2024-04-08 21:58;-30;20;49.325;0.675
2024-04-08 21:59;-31;19;49.475;0.525
2024-04-08 22:00;-31;18;49.616666666667;-0.61666666666667
2024-04-08 22:01;-31;17;49.766666666667;-1.7666666666667
2024-04-08 22:02;-32;17;49.916666666667;-0.91666666666666
2024-04-08 22:03;-32;18;50.075;-0.075000000000003
2024-04-08 22:04;-32;18;50.233333333333;-0.23333333333333
2024-04-08 22:05;-33;16;50.4;-1.4
2024-04-08 22:06;-33;12;50.533333333333;-5.5333333333333
2024-04-08 22:07;-34;14;50.683333333333;-2.6833333333333
2024-04-08 22:08;-34;13;50.825;-3.825
2024-04-08 22:09;-34;16;50.958333333333;-0.95833333333334
2024-04-08 22:10;-35;16;51.066666666667;-0.06666666666667
2024-04-08 22:11;-35;12;51.166666666667;-4.1666666666667
2024-04-08 22:12;-36;10;51.275;-5.275
2024-04-08 22:13;-36;12;51.383333333333;-3.3833333333333
2024-04-08 22:14;-36;12;51.508333333333;-3.5083333333333
2024-04-08 22:15;-37;11;51.608333333333;-3.6083333333333
2024-04-08 22:16;-37;10;51.683333333333;-4.6833333333333
2024-04-08 22:17;-38;9;51.766666666667;-4.7666666666667
2024-04-08 22:18;-38;9;51.875;-4.875
2024-04-08 22:19;-39;9;51.983333333333;-3.9833333333333
2024-04-08 22:20;-39;10;52.083333333333;-3.0833333333333
2024-04-08 22:21;-39;9;52.166666666667;-4.1666666666667
2024-04-08 22:22;-40;8;52.25;-4.25
2024-04-08 22:23;-40;8;52.358333333333;-4.3583333333333
2024-04-08 22:24;-41;10;52.475;-1.475
2024-04-08 22:25;-41;10;52.6;-1.6
2024-04-08 22:26;-42;9;52.708333333333;-1.7083333333333
2024-04-08 22:27;-42;8;52.808333333333;-2.8083333333333
2024-04-08 22:28;-42;7;52.883333333333;-3.8833333333333
2024-04-08 22:29;-43;8;52.975;-1.975
2024-04-08 22:30;-43;8;53.083333333333;-2.0833333333333
2024-04-08 22:31;-44;9;53.166666666667;-0.16666666666666
2024-04-08 22:32;-44;7;53.208333333333;-2.2083333333333
2024-04-08 22:33;-44;5;53.241666666667;-4.2416666666667
2024-04-08 22:34;-45;6;53.316666666667;-2.3166666666667
2024-04-08 22:35;-45;7;53.341666666667;-1.3416666666667
2024-04-08 22:36;-45;7;53.391666666667;-1.3916666666667
2024-04-08 22:37;-46;6;53.441666666667;-1.4416666666667
2024-04-08 22:38;-46;5;53.483333333333;-2.4833333333333
2024-04-08 22:39;-47;5;53.516666666667;-1.5166666666667
2024-04-08 22:40;-47;5;53.575;-1.575
2024-04-08 22:41;-47;5;53.641666666667;-1.6416666666667
2024-04-08 22:42;-48;5;53.691666666667;-0.69166666666667
2024-04-08 22:43;-48;4;53.716666666667;-1.7166666666667
2024-04-08 22:44;-48;3;53.775;-2.775
2024-04-08 22:45;-49;3;53.825;-1.825
2024-04-08 22:46;-49;5;53.883333333333;0.11666666666667
2024-04-08 22:47;-49;5;53.95;0.049999999999997
2024-04-08 22:48;-49;4;54.016666666667;-1.0166666666667
2024-04-08 22:49;-50;3;54.066666666667;-1.0666666666667
2024-04-08 22:50;-50;4;54.116666666667;-0.11666666666667
2024-04-08 22:51;-50;6;54.191666666667;1.8083333333333
2024-04-08 22:52;-50;7;54.266666666667;2.7333333333333
2024-04-08 22:53;-51;6;54.308333333333;2.6916666666667
2024-04-08 22:54;-51;6;54.341666666667;2.6583333333333
2024-04-08 22:55;-51;6;54.391666666667;2.6083333333333
2024-04-08 22:56;-51;7;54.45;3.55
2024-04-08 22:57;-52;8;54.483333333333;5.5166666666667
2024-04-08 22:58;-52;8;54.5;5.5
2024-04-08 22:59;-52;8;54.516666666667;5.4833333333333
2024-04-08 23:00;-52;8;54.533333333333;5.4666666666667
2024-04-08 23:01;-52;8;54.55;5.45
2024-04-08 23:02;-52;8;54.583333333333;5.4166666666667
2024-04-08 23:03;-53;8;54.608333333333;6.3916666666667
2024-04-08 23:04;-53;8;54.633333333333;6.3666666666667
2024-04-08 23:05;-53;7;54.65;5.35
2024-04-08 23:06;-53;7;54.675;5.325
2024-04-08 23:07;-53;7;54.741666666667;5.2583333333333
2024-04-08 23:08;-53;6;54.8;4.2
2024-04-08 23:09;-53;5;54.866666666667;3.1333333333333
2024-04-08 23:10;-54;5;54.908333333333;4.0916666666667
2024-04-08 23:11;-54;5;54.933333333333;4.0666666666667
2024-04-08 23:12;-54;5;54.991666666667;4.0083333333333
2024-04-08 23:13;-54;5;55.075;3.925
2024-04-08 23:14;-54;5;55.133333333333;3.8666666666667
2024-04-08 23:15;-54;4;55.216666666667;2.7833333333333
2024-04-08 23:16;-54;4;55.3;2.7
2024-04-08 23:17;-54;5;55.366666666667;3.6333333333333
2024-04-08 23:18;-54;5;55.45;3.55
2024-04-08 23:19;-54;5;55.541666666667;3.4583333333333
2024-04-08 23:20;-54;5;55.625;3.375
2024-04-08 23:21;-54;5;55.708333333333;3.2916666666667
2024-04-08 23:22;-54;5;55.8;3.2
2024-04-08 23:23;-54;6;55.883333333333;4.1166666666667
2024-04-08 23:24;-55;6;55.975;5.025
2024-04-08 23:25;-55;6;56.05;4.95
2024-04-08 23:26;-55;6;56.125;4.875
2024-04-08 23:27;-55;4;56.191666666667;2.8083333333333
2024-04-08 23:28;-55;4;56.275;2.725
2024-04-08 23:29;-55;5;56.358333333333;3.6416666666667
2024-04-08 23:30;-55;5;56.433333333333;3.5666666666667
2024-04-08 23:31;-55;3;56.5;1.5
2024-04-08 23:32;-54;4;56.55;1.45
2024-04-08 23:33;-54;4;56.616666666667;1.3833333333333
2024-04-08 23:34;-54;3;56.7;0.3
2024-04-08 23:35;-54;3;56.766666666667;0.23333333333333
2024-04-08 23:36;-54;4;56.816666666667;1.1833333333333
2024-04-08 23:37;-54;4;56.866666666667;1.1333333333333
2024-04-08 23:38;-54;3;56.908333333333;0.091666666666669
2024-04-08 23:39;-54;3;56.958333333333;0.041666666666664
2024-04-08 23:40;-54;5;57.008333333333;1.9916666666667
2024-04-08 23:41;-54;4;57.066666666667;0.93333333333333
2024-04-08 23:42;-54;2;57.125;-1.125
2024-04-08 23:43;-54;4;57.175;0.825